Weather History for Provo, UT

Change the Weather History Date:

Monday, June 10, 2013

  Actual Average Record
Temperature  
Mean Temperature 76 °F -  
Max Temperature 91 °F 75 °F 107 °F (2008)
Min Temperature 60 °F 48 °F 33 °F (2002)
Cooling Degree Days 10    
Growing Degree Days 26 (Base 50)    
Moisture  
Dew Point 43 °F    
Average Humidity 34    
Maximum Humidity 52    
Minimum Humidity 14    
Precipitation  
Precipitation 0.00 in - - ()
Sea Level Pressure  
Sea Level Pressure 29.88 in    
Wind  
Wind Speed 6 mph (SE)    
Max Wind Speed 16 mph    
Max Gust Speed -    
Visibility 12 miles    
Events      
Averages and records for this station are not official NWS values.
T = Trace of Precipitation, MM = Missing Value Source: NWS Daily Summary

Daily Weather History Graph

Daily Weather History Graph

Search for Another Location

Airport:

Trip Planner

Search our weather history database for the weather conditions in past years. The results will help you decide how hot, cold, wet, or windy it might be!

Date:

Astronomy

Jun. 10, 2013 Rise Set
Actual Time 5:56 AM MDT 8:56 PM MDT
Civil Twilight 5:24 AM MDT 9:28 PM MDT
Nautical Twilight 4:42 AM MDT 10:10 PM MDT
Astronomical Twilight 3:54 AM MDT 10:59 PM MDT
Moon 7:49 AM MDT (6/10) 10:25 PM MDT (6/10)
Length of Visible Light 16h 04m
Length of Day
14h 59m
Waxing Crescent, 4% of the Moon is Illuminated
Jun 10
Waxing Crescent
Jun 16
First Quarter
Jun 23
Full
Jun 29
Last Quarter
Jul 8
New

Hourly Weather History & Observations

Time (MDT) Temp. Dew Point Humidity Pressure Visibility Wind Dir Wind Speed Gust Speed Precip Events Conditions
12:15 AM 75.2 °F 46.4 °F 36% 29.92 in 10.0 mi ESE 6.9 mph - N/A   Clear
12:35 AM 73.4 °F 48.2 °F 41% 29.91 in 10.0 mi South 12.7 mph - N/A   Clear
12:55 AM 73.4 °F 48.2 °F 41% 29.90 in 10.0 mi SSE 9.2 mph - N/A   Clear
1:15 AM 73.4 °F 46.4 °F 38% 29.90 in 10.0 mi SSE 9.2 mph - N/A   Clear
1:35 AM 69.8 °F 46.4 °F 43% 29.90 in 10.0 mi Calm Calm - N/A   Clear
1:55 AM 69.8 °F 44.6 °F 40% 29.90 in 10.0 mi East 5.8 mph - N/A   Clear
2:15 AM 68.0 °F 42.8 °F 40% 29.91 in 10.0 mi Calm Calm - N/A   Clear
2:35 AM 66.2 °F 44.6 °F 46% 29.91 in 10.0 mi Calm Calm - N/A   Clear
2:55 AM 69.8 °F 42.8 °F 38% 29.91 in 10.0 mi South 4.6 mph - N/A   Clear
3:15 AM 69.8 °F 41.0 °F 35% 29.91 in 10.0 mi Calm Calm - N/A   Clear
3:35 AM 66.2 °F 42.8 °F 43% 29.91 in 10.0 mi SSE 4.6 mph - N/A   Clear
3:55 AM 64.4 °F 42.8 °F 45% 29.91 in 10.0 mi SE 5.8 mph - N/A   Clear
4:15 AM 64.4 °F 46.4 °F 52% 29.91 in 10.0 mi SE 6.9 mph - N/A   Clear
4:35 AM 64.4 °F 44.6 °F 49% 29.92 in 10.0 mi ESE 3.5 mph - N/A   Clear
4:55 AM 64.4 °F 44.6 °F 49% 29.92 in 10.0 mi ESE 6.9 mph - N/A   Clear
5:35 AM 66.2 °F 41.0 °F 40% 29.93 in 10.0 mi ESE 4.6 mph - N/A   Clear
5:55 AM 64.4 °F 41.0 °F 42% 29.93 in 10.0 mi SE 5.8 mph - N/A   Clear
6:15 AM 60.8 °F 42.8 °F 52% 29.93 in 10.0 mi ESE 4.6 mph - N/A   Clear
6:35 AM 64.4 °F 46.4 °F 52% 29.93 in 10.0 mi SSE 8.1 mph - N/A   Clear
6:47 AM 64.4 °F 44.6 °F 49% 29.93 in 15.0 mi Calm Calm - N/A   Partly Cloudy
7:55 AM 71.6 °F 46.4 °F 41% 29.94 in 15.0 mi ENE 4.6 mph - N/A   Partly Cloudy
8:55 AM 77.0 °F 46.4 °F 34% 29.95 in 15.0 mi SE 4.6 mph - N/A   Partly Cloudy
9:53 AM 82.4 °F 46.4 °F 28% 29.95 in 15.0 mi ENE 6.9 mph - N/A   Partly Cloudy
10:52 AM 87.8 °F 37.4 °F 17% 29.94 in 15.0 mi East 5.8 mph - N/A   Scattered Clouds
11:49 AM 91.4 °F 35.6 °F 14% 29.93 in 15.0 mi SSE 4.6 mph - N/A   Scattered Clouds
12:50 PM 91.4 °F 37.4 °F 15% 29.90 in 15.0 mi Variable 5.8 mph - N/A   Mostly Cloudy
1:50 PM 91.4 °F 39.2 °F 16% 29.89 in 15.0 mi South 13.8 mph - N/A   Mostly Cloudy
2:50 PM 86.0 °F 42.8 °F 22% 29.86 in 15.0 mi SSW 13.8 mph - N/A   Mostly Cloudy
3:50 PM 91.4 °F 44.6 °F 20% 29.83 in 15.0 mi SSW 9.2 mph - N/A   Mostly Cloudy
4:50 PM 89.6 °F 42.8 °F 20% 29.83 in 15.0 mi SSW 16.1 mph - N/A   Scattered Clouds
5:50 PM 87.8 °F 50.0 °F 27% 29.82 in 15.0 mi SSW 13.8 mph - N/A   Partly Cloudy
6:55 PM 84.2 °F 51.8 °F 33% 29.80 in 15.0 mi SSW 11.5 mph - N/A   Partly Cloudy
7:54 PM 82.4 °F 50.0 °F 32% 29.80 in 15.0 mi SSW 10.4 mph - N/A   Partly Cloudy
8:55 PM 80.6 °F 48.2 °F 32% 29.81 in 15.0 mi Calm Calm - N/A   Partly Cloudy
9:15 PM 75.2 °F 44.6 °F 34% 29.81 in 3.0 mi East 3.5 mph - N/A   Clear
9:35 PM 75.2 °F 39.2 °F 27% 29.81 in 5.0 mi East 6.9 mph - N/A   Clear
9:55 PM 73.4 °F 37.4 °F 27% 29.82 in 10.0 mi East 6.9 mph - N/A   Clear
10:15 PM 73.4 °F 35.6 °F 25% 29.83 in 10.0 mi ESE 4.6 mph - N/A   Clear
10:35 PM 73.4 °F 33.8 °F 23% 29.83 in 10.0 mi ESE 5.8 mph - N/A   Clear
10:55 PM 75.2 °F 33.8 °F 22% 29.84 in 10.0 mi East 4.6 mph - N/A   Clear
11:15 PM 71.6 °F 33.8 °F 25% 29.84 in 10.0 mi Calm Calm - N/A   Clear
11:35 PM 71.6 °F 33.8 °F 25% 29.84 in 10.0 mi SE 4.6 mph - N/A   Clear
11:55 PM 69.8 °F 44.6 °F 40% 29.85 in 10.0 mi ESE 3.5 mph - N/A   Clear